Temp
61 61 61 61 61 60 60 60 59 59 58 58 58 58 57 57 56 56 57 57 57 57 57 57 58 58 58 58 58 58 57 58 57 57 57 57 57 57 57 56 56 56 56 56 55 55 55 54 54 56 55 48
59 59 59 59 59 58 58 58 58 58 57 57 57 56 55 55 55 55 55 55 55 55 55 55 56 57 57 57 56 56 57 57 57 57 57 56 56 56 56 56 56 56 56 55 55 55 55 55 56 55 55 47
56 57 57 57 57 57 57 57 57 56 56 55 55 55 54 54 54 53 54 53 54 54 53 53 53 55 56 56 56 55 55 56 56 56 56 56 55 55 55 55 56 55 55 55 55 55 55 56 54 55 51 46
53 55 55 55 55 56 55 55 55 55 54 54 54 54 54 54 52 52 51 53 50 52 51 51 50 53 54 55 54 54 53 54 55 55 54 55 55 54 54 55 54 54 55 55 55 55 55 54 53 46 44 45
51 52 53 53 54 54 54 54 54 54 54 53 53 52 54 53 49 46 46 47 46 50 45 49 49 50 52 53 53 53 52 53 54 54 54 54 54 54 53 53 53 52 53 54 54 54 53 52 46 45 45 46
52 51 52 50 49 50 51 53 53 50 48 51 46 54 50 47 47 46 44 44 49 44 45 45 49 49 51 52 52 52 52 52 53 53 53 53 53 53 52 52 45 45 49 52 52 52 51 46 42 44 44 44
52 52 50 49 49 49 51 50 49 47 47 46 47 48 46 47 46 46 44 43 46 46 49 46 49 50 51 51 51 51 51 51 52 52 52 52 52 51 50 44 40 40 40 41 49 48 44 40 41 42 43 44
51 51 50 49 49 49 48 48 48 46 45 46 46 46 46 45 46 47 45 48 48 47 44 45 50 51 50 50 50 50 47 48 49 50 50 50 50 47 43 40 39 40 40 38 40 40 39 38 40 41 42 40
50 51 49 49 48 49 47 47 47 46 45 45 45 46 46 45 46 46 45 44 44 43 43 42 42 42 41 41 40 48 38 41 41 42 40 40 42 38 40 38 40 39 39 38 39 39 38 39 39 39 40 39
51 52 48 49 49 48 49 48 46 47 46 45 44 44 45 45 44 45 45 42 43 42 42 41 40 40 40 39 39 41 39 38 37 38 37 38 39 37 39 37 38 37 39 38 36 37 36 38 38 37 36 37
50 48 49 49 47 47 47 46 46 44 44 45 44 44 45 45 44 44 42 42 41 42 41 39 40 39 39 38 37 39 38 36 37 38 36 37 37 37 37 37 37 37 37 36 36 36 36 36 37 37 37 36
49 48 50 49 48 49 47 46 45 43 43 45 42 44 43 45 42 42 41 41 41 41 39 39 40 39 38 38 37 38 37 37 35 36 36 36 36 37 37 36 36 37 37 36 36 36 35 35 37 37 35 37
48 48 48 47 46 45 49 46 45 43 44 43 43 43 43 44 43 42 40 40 41 39 39 38 39 38 37 38 37 38 36 36 36 36 35 35 34 34 34 35 35 36 36 35 35 36 34 34 34 34 36 36
47 47 46 47 46 44 45 43 45 44 42 42 41 40 42 43 42 40 39 39 40 38 39 38 39 37 37 36 36 35 34 35 34 34 34 34 33 34 33 34 35 36 35 35 35 35 34 34 35 35 34 35
49 48 47 46 45 45 45 44 45 44 43 42 41 41 40 41 41 40 39 38 39 38 38 37 36 36 36 34 35 35 34 34 35 35 35 34 34 33 33 34 35 35 34 34 35 35 34 34 35 35 37 35
49 48 47 46 45 44 45 44 43 42 43 42 39 40 39 40 40 41 38 38 38 38 36 35 36 35 35 34 34 34 34 34 34 36 35 35 35 35 34 34 34 34 33 33 34 34 33 34 36 34 35 34
48 48 47 46 45 45 45 44 44 43 42 41 41 39 38 39 39 40 38 37 37 38 35 35 35 34 34 34 34 34 36 35 35 33 33 33 34 33 33 33 33 35 34 32 33 33 34 35 34 36 36 36
46 46 45 46 45 44 43 42 41 42 42 41 40 39 37 38 39 39 37 36 36 36 35 35 34 34 33 32 34 35 34 32 33 31 31 32 32 35 33 31 31 31 31 32 32 32 32 33 34 35 35 36
48 46 45 43 44 43 42 43 42 40 42 39 39 39 36 37 38 38 37 37 35 36 35 35 33 33 32 33 34 33 33 33 32 32 30 31 29 29 30 30 31 32 30 31 30 32 34 33 34 34 35 35
48 47 46 44 45 43 42 41 43 40 41 41 38 38 37 37 36 37 36 36 36 34 34 33 33 32 33 33 33 32 33 33 31 30 30 31 30 28 28 30 29 30 29 30 30 31 32 32 33 33 33 34
44 47 46 45 44 44 42 40 40 39 40 41 40 38 37 36 37 35 35 35 35 34 34 33 34 32 32 33 32 31 31 31 31 29 32 28 32 30 28 27 28 28 28 29 29 30 30 31 33 33 34 34
46 45 45 43 43 43 42 42 41 40 40 40 37 38 37 37 36 36 35 34 34 33 34 33 33 32 32 32 30 29 30 29 29 29 29 28 28 29 28 26 26 26 27 29 29 29 30 31 31 32 33 34
45 44 45 43 43 42 42 41 40 39 38 37 39 37 37 37 36 36 35 34 35 33 33 32 31 32 31 31 29 29 28 29 29 29 27 27 26 29 28 27 26 27 28 28 28 28 30 31 33 33 33 34
41 41 41 40 40 40 40 40 39 40 38 39 38 38 37 36 36 35 35 34 34 34 34 31 31 31 31 29 29 28 28 28 27 26 27 26 27 26 27 28 27 27 26 26 26 28 30 30 32 33 34 35
41 40 38 38 39 38 40 40 40 40 39 39 38 38 37 36 36 35 35 35 34 33 34 32 30 30 29 29 29 29 29 27 27 27 27 27 28 26 25 25 28 26 27 24 23 26 27 28 32 34 36 34
42 41 41 40 39 39 39 39 39 38 39 39 40 38 37 36 36 35 34 35 34 34 32 31 30 29 29 29 29 29 29 28 29 27 26 26 24 26 26 24 26 26 25 23 22 22 23 24 29 32 33 32
42 42 42 41 40 41 38 41 41 40 39 39 38 38 37 36 36 35 34 34 34 33 33 31 30 30 29 29 30 28 27 27 26 26 26 25 24 25 27 26 27 25 26 20 23 24 21 22 22 27 27 29
43 43 43 42 42 42 42 40 42 41 40 39 38 37 37 36 36 35 34 34 34 33 32 32 31 30 30 29 29 28 27 26 26 26 26 26 26 26 22 24 26 25 25 24 23 14 21 18 22 17 23 22
42 41 40 40 40 39 39 39 38 38 36 38 38 36 35 35 35 34 33 33 33 33 32 32 31 31 30 30 29 29 28 27 27 27 27 27 26 25 24 24 24 25 25 24 25 21 18 13 15 16 20 23
42 41 39 37 36 35 36 35 36 36 36 35 35 35 35 35 35 34 33 33 33 32 32 31 31 31 30 30 29 29 29 29 28 27 27 27 26 25 26 24 23 22 26 25 26 24 23 23 16 16 18 19
42 40 40 39 38 37 37 36 37 38 37 37 36 35 34 34 35 34 33 33 32 32 32 31 31 31 31 30 30 30 29 28 28 28 27 27 26 26 27 25 22 23 24 24 24 25 24 24 24 23 18 13
MSLP
1027.08 1027.16 1027.28 1027.48 1027.72 1027.92 1028.16 1028.32 1028.44 1028.60 1028.76 1028.92 1029.04 1029.16 1029.28 1029.36 1029.44 1029.48 1029.48 1029.48 1029.48 1029.52 1029.52 1029.48 1029.40 1029.36 1029.36 1029.36 1029.32 1029.28 1029.24 1029.20 1029.20 1029.20 1029.20 1029.16 1029.16 1029.08 1029.04 1029.04 1029.08 1029.04 1029.00 1028.96 1028.96 1028.88 1028.84 1028.76 1028.64 1028.44 1028.40 1028.44
1027.36 1027.40 1027.60 1027.76 1027.96 1028.16 1028.36 1028.52 1028.68 1028.80 1028.96 1029.12 1029.24 1029.40 1029.52 1029.64 1029.68 1029.68 1029.72 1029.72 1029.76 1029.76 1029.80 1029.80 1029.68 1029.60 1029.56 1029.56 1029.56 1029.52 1029.48 1029.40 1029.36 1029.32 1029.32 1029.28 1029.28 1029.24 1029.20 1029.16 1029.16 1029.16 1029.12 1029.08 1029.04 1029.00 1028.92 1028.80 1028.68 1028.64 1028.60 1028.60
1027.64 1027.68 1027.88 1028.00 1028.16 1028.40 1028.60 1028.76 1028.88 1029.04 1029.20 1029.36 1029.48 1029.60 1029.72 1029.80 1029.88 1029.92 1029.96 1030.00 1030.00 1030.04 1030.08 1030.08 1030.04 1029.84 1029.76 1029.76 1029.76 1029.76 1029.72 1029.64 1029.56 1029.48 1029.48 1029.40 1029.40 1029.40 1029.36 1029.28 1029.24 1029.24 1029.20 1029.20 1029.16 1029.12 1028.96 1028.88 1028.92 1028.92 1028.88 1028.76
1027.92 1028.04 1028.08 1028.16 1028.36 1028.60 1028.76 1028.92 1029.08 1029.20 1029.36 1029.48 1029.64 1029.68 1029.72 1029.80 1029.96 1030.08 1030.12 1030.16 1030.28 1030.28 1030.32 1030.32 1030.28 1030.12 1030.00 1029.96 1029.96 1030.00 1030.00 1029.88 1029.76 1029.72 1029.64 1029.56 1029.52 1029.52 1029.48 1029.44 1029.40 1029.44 1029.32 1029.28 1029.28 1029.20 1029.16 1029.08 1029.16 1029.20 1029.12 1028.96
1028.12 1028.28 1028.20 1028.40 1028.60 1028.76 1028.88 1029.04 1029.16 1029.28 1029.44 1029.56 1029.68 1029.72 1029.76 1029.80 1030.00 1030.20 1030.32 1030.36 1030.36 1030.44 1030.52 1030.48 1030.48 1030.36 1030.24 1030.12 1030.08 1030.08 1030.08 1030.04 1029.88 1029.84 1029.80 1029.76 1029.64 1029.64 1029.64 1029.60 1029.68 1029.64 1029.56 1029.48 1029.44 1029.40 1029.44 1029.40 1029.48 1029.40 1029.28 1029.16
1028.24 1028.28 1028.36 1028.56 1028.80 1028.92 1029.04 1029.12 1029.24 1029.36 1029.48 1029.56 1029.68 1029.68 1029.72 1029.84 1030.00 1030.24 1030.40 1030.44 1030.40 1030.48 1030.48 1030.52 1030.48 1030.44 1030.36 1030.28 1030.20 1030.12 1030.12 1030.08 1030.00 1029.92 1029.92 1029.88 1029.80 1029.80 1029.84 1029.88 1029.96 1029.96 1029.88 1029.76 1029.68 1029.64 1029.68 1029.76 1029.76 1029.64 1029.48 1029.36
1028.04 1028.12 1028.32 1028.56 1028.76 1028.92 1029.08 1029.16 1029.28 1029.40 1029.52 1029.64 1029.64 1029.68 1029.76 1029.92 1030.00 1030.16 1030.36 1030.40 1030.40 1030.44 1030.48 1030.48 1030.44 1030.40 1030.32 1030.32 1030.36 1030.28 1030.24 1030.24 1030.20 1030.08 1030.08 1030.08 1030.04 1030.04 1030.12 1030.16 1030.16 1030.16 1030.16 1030.12 1030.00 1029.96 1030.00 1029.96 1029.92 1029.84 1029.68 1029.60
1027.84 1028.04 1028.28 1028.56 1028.72 1028.92 1029.04 1029.16 1029.28 1029.44 1029.56 1029.64 1029.68 1029.72 1029.84 1030.00 1030.04 1030.04 1030.24 1030.32 1030.36 1030.40 1030.44 1030.48 1030.40 1030.36 1030.44 1030.48 1030.48 1030.44 1030.52 1030.52 1030.40 1030.36 1030.36 1030.36 1030.32 1030.36 1030.40 1030.36 1030.36 1030.32 1030.28 1030.28 1030.24 1030.20 1030.24 1030.20 1030.16 1030.04 1029.88 1029.84
1027.68 1027.92 1028.16 1028.36 1028.56 1028.72 1028.92 1029.08 1029.24 1029.44 1029.56 1029.68 1029.72 1029.76 1029.92 1030.00 1030.04 1030.04 1030.16 1030.28 1030.32 1030.32 1030.36 1030.40 1030.48 1030.52 1030.56 1030.60 1030.64 1030.60 1030.72 1030.72 1030.68 1030.60 1030.64 1030.68 1030.60 1030.60 1030.56 1030.52 1030.48 1030.44 1030.40 1030.36 1030.32 1030.32 1030.32 1030.32 1030.32 1030.20 1030.12 1030.04
1027.52 1027.72 1028.00 1028.20 1028.36 1028.56 1028.76 1028.92 1029.12 1029.32 1029.52 1029.64 1029.72 1029.80 1029.84 1029.88 1029.96 1030.00 1030.12 1030.28 1030.36 1030.40 1030.44 1030.52 1030.56 1030.56 1030.64 1030.68 1030.72 1030.72 1030.80 1030.84 1030.76 1030.72 1030.76 1030.80 1030.76 1030.68 1030.68 1030.60 1030.60 1030.60 1030.52 1030.44 1030.40 1030.36 1030.40 1030.40 1030.36 1030.28 1030.20 1030.16
1027.44 1027.64 1027.84 1028.04 1028.24 1028.44 1028.64 1028.80 1028.96 1029.16 1029.36 1029.56 1029.68 1029.72 1029.76 1029.80 1029.88 1029.96 1030.12 1030.24 1030.36 1030.44 1030.52 1030.64 1030.68 1030.64 1030.72 1030.80 1030.84 1030.84 1030.88 1030.92 1030.84 1030.84 1030.84 1030.84 1030.84 1030.76 1030.72 1030.68 1030.68 1030.72 1030.64 1030.56 1030.48 1030.48 1030.48 1030.48 1030.44 1030.32 1030.24 1030.16
1027.40 1027.52 1027.72 1027.96 1028.08 1028.32 1028.48 1028.68 1028.88 1029.08 1029.28 1029.52 1029.64 1029.68 1029.76 1029.80 1029.88 1029.96 1030.12 1030.24 1030.36 1030.44 1030.56 1030.68 1030.72 1030.72 1030.80 1030.84 1030.92 1030.92 1030.92 1031.00 1030.96 1030.92 1030.92 1030.96 1030.96 1030.88 1030.80 1030.72 1030.72 1030.76 1030.68 1030.64 1030.60 1030.56 1030.60 1030.56 1030.52 1030.40 1030.32 1030.20
1027.20 1027.44 1027.72 1027.96 1028.08 1028.24 1028.40 1028.56 1028.76 1029.00 1029.24 1029.40 1029.56 1029.72 1029.80 1029.84 1029.88 1029.96 1030.08 1030.28 1030.32 1030.44 1030.60 1030.68 1030.72 1030.76 1030.84 1030.92 1030.96 1031.00 1031.04 1031.04 1031.00 1030.96 1030.96 1031.04 1031.00 1030.96 1030.88 1030.80 1030.76 1030.76 1030.76 1030.68 1030.64 1030.60 1030.64 1030.64 1030.56 1030.44 1030.36 1030.28
1027.12 1027.36 1027.68 1027.88 1027.96 1028.20 1028.36 1028.52 1028.72 1028.96 1029.12 1029.24 1029.48 1029.72 1029.80 1029.88 1029.92 1030.00 1030.08 1030.24 1030.32 1030.44 1030.60 1030.68 1030.76 1030.80 1030.88 1031.00 1031.04 1031.12 1031.16 1031.12 1031.08 1031.04 1031.04 1031.04 1031.04 1031.00 1030.92 1030.80 1030.76 1030.76 1030.76 1030.72 1030.64 1030.64 1030.68 1030.68 1030.64 1030.52 1030.40 1030.28
1026.96 1027.24 1027.48 1027.68 1027.88 1028.16 1028.32 1028.44 1028.68 1028.84 1028.92 1029.12 1029.36 1029.60 1029.76 1029.92 1029.96 1030.04 1030.16 1030.28 1030.40 1030.44 1030.56 1030.72 1030.84 1030.96 1031.00 1031.08 1031.16 1031.24 1031.32 1031.24 1031.16 1031.08 1031.08 1031.08 1031.04 1030.96 1030.88 1030.80 1030.72 1030.72 1030.76 1030.68 1030.64 1030.64 1030.68 1030.68 1030.64 1030.56 1030.44 1030.32
1026.80 1027.04 1027.28 1027.52 1027.80 1028.04 1028.16 1028.36 1028.56 1028.64 1028.80 1029.04 1029.32 1029.56 1029.72 1029.84 1029.96 1030.00 1030.20 1030.32 1030.44 1030.52 1030.60 1030.76 1030.92 1031.04 1031.12 1031.24 1031.32 1031.36 1031.44 1031.40 1031.24 1031.16 1031.16 1031.12 1031.04 1030.96 1030.88 1030.80 1030.76 1030.72 1030.76 1030.72 1030.68 1030.68 1030.72 1030.68 1030.64 1030.52 1030.44 1030.36
1026.60 1026.84 1027.08 1027.36 1027.60 1027.76 1027.96 1028.20 1028.32 1028.48 1028.72 1028.96 1029.28 1029.52 1029.68 1029.76 1029.92 1030.00 1030.16 1030.36 1030.44 1030.48 1030.60 1030.80 1030.96 1031.00 1031.16 1031.32 1031.40 1031.40 1031.40 1031.36 1031.28 1031.28 1031.36 1031.28 1031.16 1031.12 1030.96 1030.88 1030.88 1030.84 1030.80 1030.76 1030.72 1030.72 1030.72 1030.68 1030.60 1030.52 1030.40 1030.36
1026.44 1026.68 1026.96 1027.20 1027.40 1027.60 1027.84 1028.04 1028.16 1028.32 1028.56 1028.84 1029.20 1029.44 1029.60 1029.72 1029.80 1029.88 1030.00 1030.20 1030.36 1030.44 1030.60 1030.80 1030.92 1031.04 1031.16 1031.32 1031.36 1031.36 1031.40 1031.44 1031.32 1031.44 1031.48 1031.44 1031.44 1031.32 1031.24 1031.12 1031.04 1030.96 1030.92 1030.80 1030.76 1030.76 1030.72 1030.68 1030.64 1030.48 1030.40 1030.32
1026.24 1026.52 1026.84 1027.04 1027.24 1027.48 1027.72 1027.84 1028.00 1028.16 1028.44 1028.72 1029.04 1029.32 1029.52 1029.64 1029.72 1029.80 1029.92 1030.08 1030.28 1030.36 1030.48 1030.72 1030.88 1031.00 1031.16 1031.28 1031.32 1031.36 1031.44 1031.48 1031.40 1031.52 1031.64 1031.56 1031.64 1031.56 1031.48 1031.36 1031.28 1031.12 1031.04 1030.92 1030.88 1030.84 1030.76 1030.72 1030.60 1030.48 1030.36 1030.24
1026.04 1026.32 1026.64 1026.88 1027.04 1027.36 1027.56 1027.68 1027.84 1028.04 1028.28 1028.52 1028.80 1029.12 1029.36 1029.52 1029.64 1029.76 1029.88 1030.00 1030.12 1030.28 1030.36 1030.52 1030.76 1030.96 1031.16 1031.28 1031.32 1031.36 1031.44 1031.48 1031.48 1031.60 1031.72 1031.60 1031.60 1031.72 1031.68 1031.56 1031.44 1031.24 1031.20 1031.12 1031.08 1031.00 1030.88 1030.72 1030.60 1030.44 1030.28 1030.16
1025.84 1026.12 1026.40 1026.64 1026.84 1027.08 1027.36 1027.44 1027.60 1027.84 1028.08 1028.32 1028.56 1028.84 1029.12 1029.32 1029.52 1029.68 1029.80 1029.92 1030.04 1030.16 1030.24 1030.40 1030.60 1030.88 1031.08 1031.20 1031.24 1031.32 1031.40 1031.44 1031.48 1031.68 1031.68 1031.72 1031.64 1031.64 1031.80 1031.64 1031.52 1031.40 1031.36 1031.32 1031.28 1031.16 1030.96 1030.72 1030.56 1030.40 1030.24 1030.04
1025.64 1025.88 1026.16 1026.40 1026.64 1026.84 1027.12 1027.24 1027.40 1027.60 1027.80 1028.04 1028.28 1028.52 1028.84 1029.08 1029.28 1029.48 1029.64 1029.80 1029.92 1030.00 1030.12 1030.28 1030.48 1030.76 1030.96 1031.08 1031.20 1031.28 1031.32 1031.40 1031.48 1031.64 1031.68 1031.80 1031.72 1031.72 1031.76 1031.72 1031.60 1031.56 1031.44 1031.40 1031.32 1031.20 1030.96 1030.68 1030.40 1030.16 1030.04 1029.92
1025.52 1025.76 1025.96 1026.16 1026.40 1026.64 1026.88 1027.08 1027.16 1027.32 1027.56 1027.76 1027.96 1028.16 1028.44 1028.76 1029.04 1029.24 1029.44 1029.60 1029.72 1029.84 1029.96 1030.12 1030.32 1030.60 1030.80 1030.92 1031.00 1031.12 1031.24 1031.32 1031.44 1031.60 1031.68 1031.84 1031.84 1031.72 1031.72 1031.72 1031.60 1031.48 1031.44 1031.48 1031.36 1031.12 1030.76 1030.48 1030.12 1029.80 1029.68 1029.64
1025.36 1025.60 1025.76 1025.96 1026.20 1026.48 1026.64 1026.80 1026.92 1027.04 1027.24 1027.44 1027.64 1027.80 1028.12 1028.44 1028.72 1028.92 1029.12 1029.32 1029.44 1029.60 1029.76 1029.96 1030.12 1030.36 1030.60 1030.72 1030.80 1030.92 1031.04 1031.08 1031.28 1031.52 1031.64 1031.72 1031.72 1031.80 1031.68 1031.52 1031.48 1031.44 1031.56 1031.52 1031.36 1031.00 1030.48 1030.04 1029.68 1029.56 1029.44 1029.36
1025.00 1025.28 1025.60 1025.76 1025.84 1026.00 1026.24 1026.40 1026.56 1026.76 1026.92 1027.12 1027.24 1027.44 1027.76 1028.08 1028.32 1028.56 1028.84 1029.00 1029.16 1029.28 1029.44 1029.68 1029.92 1030.16 1030.40 1030.52 1030.60 1030.68 1030.76 1030.88 1031.16 1031.36 1031.52 1031.60 1031.56 1031.64 1031.60 1031.52 1031.36 1031.56 1031.52 1031.64 1031.24 1030.60 1030.48 1030.12 1029.52 1029.32 1029.04 1029.00
1024.44 1024.60 1024.68 1024.88 1025.16 1025.48 1025.76 1026.00 1026.20 1026.40 1026.56 1026.72 1026.92 1027.16 1027.40 1027.68 1027.92 1028.16 1028.44 1028.64 1028.80 1028.96 1029.08 1029.32 1029.60 1029.88 1030.12 1030.28 1030.36 1030.44 1030.56 1030.84 1031.08 1031.24 1031.40 1031.44 1031.56 1031.32 1031.44 1031.52 1031.32 1031.52 1031.56 1031.60 1031.56 1031.60 1031.08 1030.36 1029.40 1028.84 1028.72 1028.80
1023.84 1024.12 1024.40 1024.56 1024.76 1025.00 1025.32 1025.40 1025.56 1025.80 1026.04 1026.36 1026.60 1026.76 1027.00 1027.28 1027.52 1027.80 1028.04 1028.24 1028.40 1028.56 1028.68 1028.88 1029.20 1029.48 1029.80 1030.00 1030.08 1030.24 1030.44 1030.68 1030.96 1031.12 1031.20 1031.20 1031.24 1031.16 1031.08 1031.32 1031.28 1031.48 1031.48 1032.04 1031.72 1031.60 1031.48 1030.64 1030.00 1029.56 1029.00 1029.20
1023.32 1023.64 1023.96 1024.24 1024.40 1024.64 1024.80 1024.92 1025.16 1025.40 1025.68 1025.96 1026.20 1026.40 1026.64 1026.92 1027.08 1027.28 1027.60 1027.76 1027.96 1028.12 1028.28 1028.48 1028.72 1029.04 1029.36 1029.56 1029.68 1029.88 1030.20 1030.48 1030.68 1030.80 1030.88 1030.96 1030.92 1031.00 1031.28 1030.92 1031.24 1031.48 1031.44 1031.72 1031.88 1031.56 1031.08 1031.48 1030.76 1031.08 1029.48 1030.44
1023.00 1023.44 1023.76 1024.00 1024.28 1024.40 1024.56 1024.68 1024.72 1024.96 1025.20 1025.28 1025.56 1025.92 1026.20 1026.28 1026.56 1026.88 1027.16 1027.36 1027.52 1027.68 1027.88 1028.08 1028.28 1028.52 1028.80 1029.08 1029.28 1029.52 1029.80 1030.04 1030.20 1030.20 1030.36 1030.48 1030.60 1030.64 1030.72 1030.64 1030.80 1031.36 1031.56 1031.60 1031.56 1031.80 1031.88 1031.08 1030.84 1030.24 1031.04 1030.72
1022.52 1022.80 1023.20 1023.64 1023.96 1024.12 1024.08 1024.16 1024.16 1024.00 1024.08 1024.56 1024.84 1024.96 1025.40 1026.00 1026.16 1026.44 1026.72 1026.92 1027.12 1027.32 1027.52 1027.68 1027.84 1028.04 1028.32 1028.64 1028.88 1029.04 1029.20 1029.44 1029.76 1029.84 1029.96 1030.00 1030.16 1030.28 1030.20 1030.48 1030.68 1031.08 1031.16 1031.52 1031.48 1031.52 1031.40 1031.08 1031.16 1031.28 1031.44 1031.36
1021.92 1022.32 1022.56 1022.68 1022.80 1022.96 1023.12 1023.20 1023.08 1023.12 1023.52 1023.88 1024.28 1024.76 1025.08 1025.40 1025.72 1025.92 1026.16 1026.44 1026.64 1026.88 1027.12 1027.32 1027.48 1027.64 1027.84 1028.12 1028.40 1028.56 1028.76 1028.88 1029.04 1029.28 1029.52 1029.72 1029.92 1029.92 1030.00 1030.24 1030.64 1030.72 1030.80 1031.40 1031.52 1031.48 1031.44 1031.40 1031.36 1031.40 1031.76 1032.20
Wind_Speed
18 19 19 18 18 17 17 16 16 16 16 15 15 15 15 15 14 14 15 14 14 14 14 15 14 15 15 15 15 16 15 15 15 16 16 15 16 16 15 13 13 14 14 15 15 14 13 12 11 13 10 5
18 18 19 19 18 17 17 16 16 16 15 15 14 14 14 14 14 14 14 14 14 14 14 14 14 14 14 14 15 15 15 15 15 15 16 15 15 15 15 13 12 13 13 14 15 14 14 12 12 13 11 5
12 18 18 18 18 17 17 16 16 15 15 14 13 13 12 12 12 12 12 13 13 13 13 13 12 13 13 13 13 14 14 14 14 14 15 15 14 15 14 13 11 13 13 14 15 14 14 13 14 13 8 5
8 13 17 17 17 16 16 15 15 15 14 13 11 10 9 10 7 8 7 11 8 12 12 12 10 11 12 13 12 12 12 13 13 13 14 15 13 14 14 13 12 13 13 14 15 13 14 14 12 6 6 5
7 9 14 13 15 15 15 14 13 13 12 10 7 6 6 7 5 4 4 4 3 7 5 8 8 9 10 12 13 10 10 11 13 12 13 14 13 13 15 14 13 14 14 14 15 14 14 13 7 7 5 6
5 6 9 8 6 6 7 8 8 5 4 5 3 4 4 4 4 5 4 3 3 2 2 4 6 5 7 9 13 10 10 10 13 11 13 14 13 14 14 15 7 6 10 14 14 13 14 7 6 7 6 5
5 6 5 5 5 5 6 5 4 4 4 3 2 2 4 3 2 5 3 2 2 1 4 3 4 4 7 8 11 10 10 11 12 11 12 14 13 13 13 7 6 6 6 6 11 10 7 6 6 6 6 5
5 5 5 5 5 6 5 4 4 4 4 3 2 3 4 3 1 1 5 4 4 4 3 4 2 7 8 8 9 10 7 10 9 11 11 12 12 8 5 5 5 6 5 5 5 5 6 6 6 6 5 5
6 6 6 6 6 6 6 5 6 4 4 3 2 2 4 2 1 1 4 2 1 2 3 3 3 3 4 3 3 7 4 5 4 5 5 4 5 4 5 4 5 4 6 4 4 4 4 5 5 5 5 6
6 6 6 5 5 5 5 5 5 6 6 4 3 2 1 3 3 1 4 3 1 2 3 3 3 3 3 3 4 3 4 5 3 4 4 4 4 3 4 3 4 4 4 4 4 4 4 5 4 5 4 4
5 5 5 6 6 5 5 5 5 5 4 4 3 3 1 1 2 1 4 2 2 1 4 3 3 2 3 3 4 3 4 4 4 4 4 5 4 4 4 4 4 4 4 4 4 4 4 4 5 5 4 4
5 4 5 4 5 5 6 5 5 5 5 4 3 2 2 0 1 2 3 2 1 2 3 2 1 2 3 3 3 3 3 4 3 3 4 4 4 4 4 4 4 4 4 4 3 3 4 4 6 5 5 4
5 5 5 4 4 4 4 5 4 5 5 5 5 2 1 1 0 1 3 2 1 3 2 3 1 3 3 4 3 4 4 4 4 4 3 4 3 4 4 3 3 3 4 4 3 3 4 4 4 5 5 5
5 6 6 5 4 6 4 4 6 5 5 5 5 4 1 0 0 2 2 3 1 4 2 2 1 3 2 4 3 3 3 3 3 3 3 3 3 3 3 3 3 3 3 4 3 3 3 4 4 5 5 5
5 6 5 5 5 6 5 5 6 5 4 5 5 4 3 2 0 2 2 2 1 2 2 3 3 3 2 3 3 3 3 2 2 2 1 2 2 2 3 3 3 2 3 4 3 4 4 4 4 5 5 4
6 6 6 5 6 6 5 6 6 4 6 5 5 4 3 3 2 1 3 1 1 1 3 3 2 3 2 2 3 2 1 2 2 0 2 2 2 2 3 3 3 3 3 3 3 4 4 4 5 5 5 4
5 6 6 6 6 6 6 6 5 6 6 6 5 4 4 3 3 2 5 4 1 1 4 3 1 2 3 4 1 1 0 2 1 3 3 3 3 5 3 3 3 3 3 3 3 3 4 5 4 4 5 5
5 5 6 6 5 5 6 5 5 5 6 6 6 5 4 4 3 2 4 4 3 2 5 4 3 1 4 3 0 1 1 2 1 3 3 2 4 4 4 4 3 3 3 4 3 3 4 4 5 5 5 5
6 5 6 6 6 6 5 5 6 6 6 6 6 6 5 4 3 2 4 4 4 2 4 5 4 3 3 2 0 1 2 0 1 5 2 1 2 3 4 3 3 2 3 3 3 4 5 5 5 5 5 5
6 6 6 6 5 6 5 6 6 6 6 6 7 6 6 4 4 3 3 3 4 3 4 4 6 4 4 2 1 3 1 0 1 3 1 2 1 1 3 3 4 3 3 3 4 4 5 5 5 6 6 5
5 6 6 6 6 6 6 6 7 6 7 7 7 7 7 6 5 4 4 4 4 4 4 4 5 5 4 1 2 2 1 1 2 2 0 2 1 1 1 2 2 3 2 2 4 4 5 5 5 5 6 4
5 6 6 6 6 5 7 5 6 7 7 7 7 7 7 7 5 5 5 4 4 4 4 4 5 5 4 3 2 3 2 2 3 1 1 0 2 1 1 2 2 2 2 2 4 5 5 6 6 6 5 4
6 5 5 5 6 6 6 6 6 6 7 7 7 7 7 8 7 6 6 5 5 5 5 5 5 5 4 4 4 4 3 4 3 2 1 1 1 1 1 2 3 3 1 3 5 5 7 6 8 6 4 4
6 6 7 7 6 6 6 6 6 6 7 7 7 7 8 8 7 7 7 7 6 6 6 6 5 5 5 4 4 5 4 4 5 4 2 2 2 2 2 3 3 1 3 4 5 7 6 4 6 6 6 5
9 8 7 6 8 8 7 7 7 7 6 7 7 7 8 9 8 8 8 7 7 7 7 7 6 6 5 5 4 5 5 3 4 3 2 1 1 3 3 2 0 1 1 5 4 3 5 7 7 8 8 6
9 9 9 9 9 7 8 8 8 8 8 8 7 8 9 9 8 9 9 8 8 7 7 8 7 7 7 6 6 5 5 4 4 4 3 3 2 3 3 1 2 1 1 4 3 5 6 5 6 4 2 4
10 9 8 9 7 8 6 7 7 7 8 7 8 9 10 9 9 10 9 9 9 8 8 8 8 8 7 7 6 6 7 6 6 6 6 4 4 1 1 2 1 3 1 3 3 5 2 4 5 5 3 4
9 9 8 7 7 8 8 7 7 8 8 8 9 10 10 9 10 10 10 10 9 8 8 9 9 8 8 8 7 7 7 7 7 7 6 5 4 4 0 3 1 4 1 2 0 2 1 3 1 4 1 3
9 8 8 8 6 5 6 6 7 8 8 10 10 9 10 11 10 10 10 10 10 9 10 9 9 9 9 9 7 7 8 8 9 8 8 8 6 6 5 3 2 3 5 3 3 5 1 2 0 2 1 5
11 10 10 9 9 10 9 10 10 13 13 11 12 13 9 9 11 10 10 10 11 10 9 10 10 9 9 9 8 8 8 8 9 8 9 8 7 7 5 6 3 2 3 7 4 4 3 2 4 2 4 3
12 11 11 13 13 12 12 13 11 8 8 10 9 8 10 10 10 11 12 11 11 10 10 10 10 10 10 10 9 8 8 8 10 9 9 7 8 7 6 7 5 7 5 5 4 5 5 4 3 1 1 4
Wind_Direction
101 101 99 98 96 94 94 93 91 90 88 85 82 78 76 71 68 65 62 59 58 55 50 45 46 47 44 43 41 38 37 35 35 34 33 32 30 28 27 32 33 31 30 27 25 19 18 15 4 17 35 355
98 98 99 99 98 98 97 97 95 92 90 87 85 82 78 74 69 66 62 59 57 55 50 44 41 43 44 42 40 38 34 32 31 30 28 27 27 26 25 26 32 28 28 26 23 19 14 9 30 22 20 357
94 97 101 101 100 100 100 99 98 96 91 89 88 87 85 84 77 72 68 62 59 57 52 47 37 38 41 40 40 37 33 29 27 27 24 22 24 22 23 23 29 24 24 24 22 20 15 26 33 18 9 350
92 99 101 99 98 100 100 100 99 97 95 93 92 95 100 100 92 75 68 73 66 62 56 47 39 34 37 37 35 36 32 27 26 25 23 19 20 21 20 24 25 21 17 22 19 23 23 29 25 7 356 346
102 107 101 98 101 102 102 101 102 101 99 96 99 117 128 90 90 78 58 49 74 71 73 58 46 39 35 33 29 31 32 25 22 26 25 18 20 24 20 26 20 20 15 17 17 22 25 25 16 359 352 353
132 126 112 111 113 109 109 109 105 104 112 124 141 130 94 83 86 95 81 53 46 98 86 81 67 53 43 36 26 28 26 26 19 24 24 21 21 26 23 21 12 13 12 13 16 21 22 17 13 348 350 3
145 130 123 121 109 117 121 126 116 108 94 84 86 78 88 69 71 120 118 139 178 148 123 106 104 70 40 33 29 23 30 20 19 23 22 22 25 25 22 16 11 7 10 7 7 16 19 6 4 351 352 4
143 126 129 136 144 138 139 121 110 107 103 92 74 70 70 96 70 93 131 162 206 195 188 167 129 36 41 26 29 25 37 15 18 25 26 22 24 21 17 13 9 9 2 9 1 13 20 6 358 349 352 1
141 146 143 152 151 146 143 148 134 122 112 107 96 80 104 117 170 120 86 74 45 34 75 38 30 38 47 20 37 20 48 9 4 14 28 23 9 14 15 13 7 7 4 0 360 14 12 11 355 345 352 354
141 137 140 146 142 139 136 143 144 141 136 132 113 87 140 168 155 145 117 111 64 23 65 45 21 37 49 24 33 21 42 15 9 11 29 24 7 3 12 8 13 11 356 354 354 11 10 8 348 340 343 347
134 155 144 145 150 139 145 143 128 123 112 110 132 150 163 64 96 92 108 100 112 92 67 62 9 36 61 33 45 12 52 26 2 15 27 21 357 4 3 358 31 13 346 354 7 10 9 6 341 335 340 339
167 146 138 132 135 143 151 144 137 134 122 126 105 62 48 60 117 113 105 97 96 97 81 84 21 47 53 57 48 24 52 39 2 20 28 28 353 8 352 359 25 10 348 352 9 14 8 359 337 333 338 336
150 135 120 133 155 127 148 140 132 120 135 147 125 104 107 16 52 99 105 95 103 83 83 88 43 62 58 64 43 44 14 39 5 12 37 24 357 5 343 354 11 7 350 343 353 19 10 346 334 331 334 327
146 144 147 168 154 137 164 144 125 138 164 138 129 137 99 45 92 62 66 107 36 109 125 104 80 77 64 73 57 53 32 13 5 15 23 21 1 355 339 344 341 23 343 336 346 14 6 342 320 324 320 320
154 154 159 166 137 146 173 130 135 172 148 134 134 124 128 116 14 112 87 73 40 103 119 108 88 79 59 69 48 69 34 348 338 3 44 32 347 324 331 325 348 9 350 332 355 2 4 324 331 313 307 316
163 165 163 155 144 166 154 141 164 166 138 134 115 122 161 157 156 118 101 99 113 75 88 82 86 92 73 78 42 67 66 319 294 26 21 1 322 338 338 334 354 357 1 340 350 3 351 333 327 312 304 317
167 163 149 154 162 163 146 163 168 153 147 139 129 140 170 155 146 177 152 150 117 131 103 91 80 95 100 87 30 50 65 313 334 40 22 336 8 346 348 3 356 9 343 353 347 1 330 336 319 308 322 311
163 159 146 162 163 146 148 174 162 160 150 140 142 148 156 155 169 154 122 127 154 185 136 133 125 113 103 90 196 168 59 351 3 61 14 350 23 339 7 345 352 0 342 333 347 344 325 329 313 310 317 301
169 154 160 168 164 147 164 176 167 159 148 145 149 143 156 163 165 157 138 145 156 196 140 158 143 143 109 88 285 88 98 316 332 80 6 360 19 338 351 345 338 333 341 331 341 332 327 313 310 316 299 297
169 161 170 169 166 149 177 176 167 162 157 157 152 150 159 161 160 157 146 162 160 170 163 159 152 138 115 174 203 109 157 174 76 80 23 318 65 25 325 346 311 345 351 348 341 322 314 300 302 300 295 293
174 165 169 173 169 158 178 174 170 165 158 163 158 156 154 160 166 161 160 174 182 169 164 143 133 124 139 182 143 147 152 128 94 94 99 329 9 37 266 306 314 342 341 349 317 305 293 287 282 281 280 286
181 173 171 174 168 165 174 183 174 170 162 167 164 158 157 160 165 165 166 172 186 160 171 153 140 138 155 158 180 157 177 132 106 114 93 351 319 4 322 300 314 301 308 325 301 293 285 274 267 255 256 270
181 177 181 175 165 176 175 190 183 172 167 172 169 168 159 159 167 169 170 174 184 169 164 148 144 140 164 173 182 154 184 172 154 157 128 158 272 312 276 246 264 242 319 327 294 285 278 272 257 246 237 239
181 176 187 182 173 181 186 187 187 181 174 175 176 175 160 164 171 170 172 176 185 165 165 161 160 156 165 182 172 174 183 183 156 152 169 219 193 264 272 278 245 56 27 296 291 277 274 277 284 274 245 233
182 185 187 190 192 190 184 190 186 188 182 184 183 175 163 169 178 169 173 180 181 173 173 166 165 159 170 190 176 183 183 149 124 133 178 198 263 217 243 267 171 47 37 305 303 309 320 298 278 262 248 209
188 192 191 186 193 183 184 188 189 192 191 189 185 177 171 175 181 171 177 179 180 181 174 169 167 164 178 186 180 187 163 140 156 167 170 199 246 217 184 244 141 252 80 323 13 333 324 306 293 316 325 182
194 190 192 188 191 185 190 195 195 192 187 184 186 182 179 177 182 176 178 180 181 181 181 175 164 173 176 185 179 171 154 161 167 179 187 200 183 262 217 193 190 174 124 190 309 269 281 299 0 317 349 15
192 189 189 194 190 192 190 192 190 191 184 187 185 189 180 183 186 179 180 181 183 182 181 180 172 172 175 183 183 168 168 173 187 178 187 186 193 165 234 193 146 153 220 141 177 1 352 264 349 322 21 9
186 179 187 191 198 195 200 205 196 188 195 190 190 181 186 190 183 181 181 183 185 182 181 182 176 175 175 179 184 175 179 182 190 180 181 179 178 189 171 199 146 170 163 155 217 153 36 337 338 224 325 343
186 190 186 182 187 199 201 206 201 201 196 188 190 193 181 180 185 182 183 185 185 184 182 185 183 178 175 178 185 188 191 180 181 180 178 181 175 189 187 163 160 199 178 167 191 187 201 185 182 273 300 39
188 195 196 197 199 200 203 209 216 208 193 191 189 176 183 186 186 187 184 188 186 184 187 185 186 184 180 180 184 189 190 188 181 179 177 174 181 185 180 154 178 180 201 148 201 191 211 238 246 163 139 223